CST,Max TemperatureF,Mean TemperatureF,Min TemperatureF,Max Dew PointF,MeanDew PointF,Min DewpointF,Max Humidity, Mean Humidity, Min Humidity, Max Sea Level PressureIn, Mean Sea Level PressureIn, Min Sea Level PressureIn, Max VisibilityMiles, Mean VisibilityMiles, Min VisibilityMiles, Max Wind SpeedMPH, Mean Wind SpeedMPH, Max Gust SpeedMPH,PrecipitationIn, CloudCover, Events, WindDirDegrees
2012-11-1,86,77,68,75,70,66,94,78,62,30.08,30.01,29.87,6,5,3,12,9,,0.00,4,,80
2012-11-2,86,77,68,72,70,68,100,78,62,30.07,30.01,29.88,7,5,3,12,9,,0.00,3,,96
2012-11-3,86,78,69,73,69,66,94,73,55,30.05,29.99,29.87,5,5,4,12,5,,0.00,3,,6
2012-11-4,84,78,71,79,73,70,100,89,70,30.05,30.01,29.96,6,3,0,9,5,,0.00,7,Fog-Rain,353
2012-11-5,77,72,68,72,69,66,100,87,69,30.13,30.08,30.00,6,4,0,12,6,,0.00,8,Fog,229
2012-11-6,86,78,69,72,69,68,100,77,55,30.16,30.08,30.04,7,6,3,9,4,,0.00,3,,10
2012-11-7,87,78,68,75,71,68,100,81,62,30.22,30.11,30.00,6,5,1,14,6,,0.00,3,,60
2012-11-8,86,77,68,73,69,64,100,82,62,30.14,30.11,30.02,6,4,0,14,5,,0.00,3,Fog,151
2012-11-9,84,74,64,72,69,64,100,79,66,30.15,30.06,29.94,7,6,3,9,5,,0.00,2,,128
2012-11-10,84,74,64,70,67,64,100,74,62,30.09,30.01,29.94,7,6,2,12,6,,0.00,0,,112
2012-11-11,89,78,66,75,71,64,94,76,59,30.03,29.95,29.87,5,5,4,7,5,,0.00,3,,122
2012-11-12,84,75,66,75,70,66,100,89,62,30.58,30.17,30.06,6,3,1,16,12,,2.05,6,Rain,334
2012-11-13,60,58,55,61,59,55,100,100,100,30.37,30.25,30.10,3,1,0,15,11,,1.36,8,Rain,319
2012-11-14,68,64,60,66,63,61,100,97,83,30.34,30.22,30.13,4,2,1,14,11,,1.08,8,,305
2012-11-15,80,73,66,72,67,63,94,86,69,30.25,30.16,30.09,6,4,2,14,10,,0.00,4,,355
2012-11-16,78,73,68,70,68,68,100,84,69,30.21,30.17,30.06,7,5,1,9,6,,0.00,6,,352
2012-11-17,68,67,66,68,67,66,100,99,94,30.28,30.24,30.21,6,2,1,16,11,,1.95,8,,318
2012-11-18,77,72,66,68,67,64,94,84,74,30.25,30.18,30.10,5,5,3,7,5,,0.00,8,,348
2012-11-19,82,74,66,70,66,63,100,81,54,30.23,30.17,30.09,7,4,0,12,3,,0.00,4,Fog,121
2012-11-20,84,74,64,70,66,61,100,78,55,30.21,30.16,30.06,7,5,0,9,4,,0.00,1,Fog,63
2012-11-21,78,72,66,70,66,63,94,80,73,30.25,30.16,29.90,5,5,3,12,7,,0.00,7,,358
2012-11-22,80,73,66,72,68,64,94,79,65,30.16,30.13,30.07,6,5,3,12,6,,0.00,5,,21
2012-11-23,84,75,66,72,67,59,94,77,57,30.18,30.15,30.10,7,6,3,9,5,,0.00,5,,110
2012-11-24,75,70,64,68,66,61,100,91,73,30.30,30.22,30.17,7,6,2,12,5,,0.00,7,Rain,349
2012-11-25,82,73,64,70,67,61,100,82,66,30.17,30.09,30.01,5,5,2,7,6,,0.00,3,,142
2012-11-26,82,72,62,66,64,63,100,80,57,30.08,30.02,29.94,7,5,0,12,7,,0.00,4,,2
2012-11-27,86,75,64,72,67,57,100,79,51,30.28,30.21,30.13,5,4,2,14,10,,0.00,5,,340
2012-11-28,71,70,68,66,63,61,88,79,69,30.35,30.29,30.24,5,4,3,14,12,,0.00,8,,337
2012-11-29,77,70,64,72,66,63,94,83,65,30.22,30.14,30.03,5,4,3,9,6,,0.00,7,,82
2012-11-30,82,75,68,73,68,64,88,81,65,30.19,30.11,29.99,6,4,3,12,6,,0.00,6,,18